Skip Page Navigation
NASA JPL Caltech
NASA Logo - Jet Propulsion Laboratory + View the NASA Portal
+ Near-Earth Object (NEO) Program
Search JPL
JPL Home Earth Solar System Stars & Galaxies Technology
JPL Solar System Dynamics
BODIES ORBITS EPHEMERIDES TOOLS PHYSICAL DATA DISCOVERY FAQ SITE MAP
JPL Small-Body Database Browser
Search: [ help ]  
350751 (2002 AW)
Classification: Apollo [NEO, PHA]          SPK-ID: 2350751
Ephemeris | Orbit Diagram | Orbital Elements | Physical Parameters | Discovery Circumstances | Close-Approach Data ]

[ hide orbit diagram ]
Orbit Diagram
Note: Make sure you have Java enabled on your browser to see the applet. This applet is provided as a 3D orbit visualization tool. The applet was implemented using 2-body methods, and hence should not be used for determining accurate long-term trajectories (over several years or decades) or planetary encounter circumstances. For accurate long-term ephemerides, please instead use our Horizons system.
Orbit Viewer

Additional Notes: the orbits shown in the applet are color coded. The planets are white lines, and the asteroid/comet is a blue line. The bright white line indicates the portion of the orbit that is above the ecliptic plane, and the darker portion is below the ecliptic plane. Likewise for the asteroid/comet orbit, the light blue indicates the portion above the ecliptic plane, and the dark blue the portion below the ecliptic plane.

Orbit Viewer applet originally written and kindly provided by Osamu Ajiki (AstroArts), and further modified by Ron Baalke (JPL).


Orbital Elements at Epoch 2456400.5 (2013-Apr-18.0) TDB
Reference: JPL 41 (heliocentric ecliptic J2000)
 Element Value Uncertainty (1-sigma)   Units 
e .256226865690332 1.0023e-07  
a 1.069863762801766 1.6649e-08 AU
q .7957359241434049 1.1268e-07 AU
i .5723731873618152 6.8427e-06 deg
node 162.4661162318195 0.00050814 deg
peri 118.6355640494506 0.00051166 deg
M 266.9294528780922 0.00010306 deg
tp 2456504.996299176820
(2013-Jul-31.49629918)
0.00011811 JED
period 404.1951924316155
1.11
9.4349e-06
2.583e-08
d
yr
n .8906587874889365 2.079e-08 deg/d
Q 1.343991601460128 2.0915e-08 AU
  Orbit Determination Parameters
   # obs. used (total)      196  
   data-arc span      4050 days (11.09 yr)  
   first obs. used      2001-12-17  
   last obs. used      2013-01-18  
   planetary ephem.      DE405  
   SB-pert. ephem.      SB405-CPV-2  
   condition code      0  
   fit RMS      .58156  
   data source      ORB  
   producer      Otto Matic  
   solution date      2013-Apr-29 15:41:56  

Additional Information
 Earth MOID = .00478664 AU 
 T_jup = 5.740 
[ show covariance matrix ]

Ephemeris | Orbit Diagram | Orbital Elements | Physical Parameters | Discovery Circumstances | Close-Approach Data ]

Physical Parameter Table
Parameter Symbol Value Units Sigma Reference Notes
absolute magnitude H 20.559 mag .71083 41 autocmod 2.5c

350751 (2002 AW)          Discovered 2002-Jan-05 by Spacewatch at Kitt Peak (691)
Reference: 20130127/Numbers.arcLast Updated: 2013-01-31

[ show close-approach data ]
Ephemeris | Orbit Diagram | Orbital Elements | Physical Parameters | Discovery Circumstances | Close-Approach Data ]
ABOUT SSD CREDITS/AWARDS PRIVACY/COPYRIGHT GLOSSARY LINKS
FirstGov 2013-May-24 09:52 UT
(server date/time)  
NASA Home Page
Site Manager:   Donald K. Yeomans
Webmaster  Alan B. Chamberlin